| time (UTC) | temp F | wind direction | speed MPH | gust MPH | rain 1hr in | rain 24hr in | rain mn in | humidity % | barometer mb |
| 20260906190403 | 58 | 313 | 0.0 | 0.0 | 0.00 | 0.00 | 0.00 | 79 | 1015.9 |
| 20260906185904 | 59 | 313 | 0.0 | 0.0 | 0.00 | 0.00 | 0.00 | 77 | 1015.7 |
| 20260906185403 | 59 | 313 | 0.0 | 0.0 | 0.00 | 0.00 | 0.00 | 77 | 1015.7 |
| 20260906184904 | 59 | 313 | 0.0 | 0.0 | 0.00 | 0.00 | 0.00 | 75 | 1015.7 |
| 20260906184403 | 60 | 313 | 0.0 | 0.0 | 0.00 | 0.00 | 0.00 | 75 | 1015.7 |
| 20260906183903 | 60 | 313 | 0.0 | 0.0 | 0.00 | 0.00 | 0.00 | 74 | 1015.7 |
| 20260906183403 | 60 | 313 | 0.0 | 0.0 | 0.00 | 0.00 | 0.00 | 72 | 1015.7 |
| 20260906183125 | 61 | 313 | 0.0 | 1.0 | 0.00 | 0.00 | 0.00 | 72 | 1015.6 |
| 20260906182402 | 61 | 313 | 0.0 | 1.0 | 0.00 | 0.00 | 0.00 | 71 | 1015.6 |
| 20260906181902 | 62 | 313 | 0.0 | 2.0 | 0.00 | 0.00 | 0.00 | 72 | 1015.5 |
| 20260906181402 | 62 | 313 | 1.0 | 2.0 | 0.00 | 0.00 | 0.00 | 71 | 1015.5 |
| 20260906180903 | 62 | 313 | 1.0 | 2.0 | 0.00 | 0.00 | 0.00 | 71 | 1015.6 |
| 20260906180402 | 62 | 313 | 1.0 | 2.0 | 0.00 | 0.00 | 0.00 | 71 | 1015.5 |
| 20260906175901 | 62 | 313 | 1.0 | 2.0 | 0.00 | 0.00 | 0.00 | 71 | 1015.5 |
| 20260906175402 | 63 | 313 | 0.0 | 2.0 | 0.00 | 0.00 | 0.00 | 70 | 1015.4 |
| 20260906174902 | 63 | 313 | 0.0 | 2.0 | 0.00 | 0.00 | 0.00 | 69 | 1015.4 |
| 20260906174846 | 64 | 313 | 2.0 | 3.0 | 0.00 | 0.00 | 0.00 | 67 | 1015.3 |
| 20260906173901 | 64 | 313 | 0.0 | 3.0 | 0.00 | 0.00 | 0.00 | 64 | 1015.2 |
| 20260906173404 | 64 | 302 | 2.0 | 3.0 | 0.00 | 0.00 | 0.00 | 64 | 1015.3 |
| 20260906172903 | 65 | 293 | 1.0 | 2.0 | 0.00 | 0.00 | 0.00 | 63 | 1015.2 |
| 20260906172403 | 65 | 293 | 1.0 | 5.0 | 0.00 | 0.00 | 0.00 | 63 | 1015.1 |
| 20260906171903 | 65 | 292 | 1.0 | 6.0 | 0.00 | 0.00 | 0.00 | 62 | 1015.1 |
| 20260906171403 | 65 | 331 | 3.0 | 6.0 | 0.00 | 0.00 | 0.00 | 62 | 1015.1 |
| 20260906171126 | 65 | 298 | 4.0 | 7.0 | 0.00 | 0.00 | 0.00 | 61 | 1015.0 |
| 20260906170403 | 66 | 338 | 4.0 | 7.0 | 0.00 | 0.00 | 0.00 | 60 | 1014.9 |
| 20260906165903 | 66 | 288 | 5.0 | 7.0 | 0.00 | 0.00 | 0.00 | 59 | 1014.8 |
| 20260906165403 | 67 | 290 | 5.0 | 9.0 | 0.00 | 0.00 | 0.00 | 58 | 1014.9 |
| 20260906164903 | 67 | 320 | 5.0 | 9.0 | 0.00 | 0.00 | 0.00 | 57 | 1014.8 |
| 20260906164403 | 67 | 290 | 3.0 | 9.0 | 0.00 | 0.00 | 0.00 | 56 | 1014.9 |
| 20260906163902 | 67 | 317 | 5.0 | 6.0 | 0.00 | 0.00 | 0.00 | 56 | 1014.8 |
| 20260906163844 | 68 | 307 | 3.0 | 7.0 | 0.00 | 0.00 | 0.00 | 56 | 1014.7 |
| 20260906163119 | 68 | 305 | 3.0 | 12.0 | 0.00 | 0.00 | 0.00 | 56 | 1014.8 |
| 20260906162404 | 68 | 305 | 6.0 | 12.0 | 0.00 | 0.00 | 0.00 | 56 | 1014.7 |
| 20260906161904 | 68 | 302 | 2.0 | 6.0 | 0.00 | 0.00 | 0.00 | 56 | 1014.9 |
| 20260906161403 | 68 | 314 | 2.0 | 7.0 | 0.00 | 0.00 | 0.00 | 57 | 1014.8 |
| 20260906160903 | 68 | 51 | 5.0 | 7.0 | 0.00 | 0.00 | 0.00 | 57 | 1014.6 |
| 20260906160403 | 68 | 278 | 3.0 | 7.0 | 0.00 | 0.00 | 0.00 | 57 | 1014.6 |
| 20260906155904 | 68 | 274 | 6.0 | 11.0 | 0.00 | 0.00 | 0.00 | 57 | 1014.7 |
| 20260906155630 | 68 | 306 | 5.0 | 11.0 | 0.00 | 0.00 | 0.00 | 56 | 1014.6 |
| 20260906154904 | 69 | 288 | 3.0 | 6.0 | 0.00 | 0.00 | 0.00 | 57 | 1014.6 |
| 20260906154404 | 68 | 312 | 4.0 | 10.0 | 0.00 | 0.00 | 0.00 | 56 | 1014.4 |
| 20260906154129 | 68 | 300 | 7.0 | 11.0 | 0.00 | 0.00 | 0.00 | 56 | 1014.3 |
| 20260906153404 | 68 | 309 | 6.0 | 11.0 | 0.00 | 0.00 | 0.00 | 56 | 1014.3 |
| 20260906152903 | 68 | 312 | 5.0 | 9.0 | 0.00 | 0.00 | 0.00 | 54 | 1014.1 |
| 20260906152404 | 68 | 340 | 4.0 | 10.0 | 0.00 | 0.00 | 0.00 | 54 | 1014.3 |
| 20260906152128 | 68 | 314 | 3.0 | 10.0 | 0.00 | 0.00 | 0.00 | 54 | 1014.4 |
| 20260906151403 | 68 | 278 | 5.0 | 10.0 | 0.00 | 0.00 | 0.00 | 53 | 1014.3 |
| 20260906150904 | 68 | 302 | 5.0 | 10.0 | 0.00 | 0.00 | 0.00 | 53 | 1014.2 |
| 20260906150404 | 68 | 336 | 5.0 | 12.0 | 0.00 | 0.00 | 0.00 | 52 | 1014.3 |
| 20260906150352 | 68 | 275 | 4.0 | 12.0 | 0.00 | 0.00 | 0.00 | 52 | 1014.4 |
| 20260906145404 | 69 | 283 | 5.0 | 13.0 | 0.00 | 0.00 | 0.00 | 51 | 1014.3 |
| 20260906144904 | 69 | 283 | 7.0 | 13.0 | 0.00 | 0.00 | 0.00 | 52 | 1014.3 |
| 20260906144402 | 68 | 329 | 6.0 | 12.0 | 0.00 | 0.00 | 0.00 | 53 | 1014.3 |
| 20260906143902 | 68 | 285 | 9.0 | 12.0 | 0.00 | 0.00 | 0.00 | 51 | 1014.2 |
| 20260906143402 | 69 | 292 | 5.0 | 14.0 | 0.00 | 0.00 | 0.00 | 53 | 1014.2 |
| 20260906142902 | 69 | 293 | 9.0 | 14.0 | 0.00 | 0.00 | 0.00 | 52 | 1014.2 |
| 20260906142402 | 69 | 295 | 7.0 | 12.0 | 0.00 | 0.00 | 0.00 | 52 | 1014.1 |
| 20260906142123 | 69 | 272 | 7.0 | 13.0 | 0.00 | 0.00 | 0.00 | 52 | 1014.1 |
| 20260906141404 | 69 | 326 | 4.0 | 13.0 | 0.00 | 0.00 | 0.00 | 52 | 1014.1 |
| 20260906140904 | 69 | 290 | 5.0 | 12.0 | 0.00 | 0.00 | 0.00 | 50 | 1014.1 |
| 20260906140404 | 70 | 329 | 6.0 | 10.0 | 0.00 | 0.00 | 0.00 | 52 | 1014.0 |
| 20260906135905 | 70 | 233 | 5.0 | 10.0 | 0.00 | 0.00 | 0.00 | 52 | 1014.0 |
| 20260906135404 | 69 | 286 | 4.0 | 9.0 | 0.00 | 0.00 | 0.00 | 53 | 1014.0 |
| 20260906134905 | 69 | 300 | 7.0 | 11.0 | 0.00 | 0.00 | 0.00 | 52 | 1014.0 |
| 20260906134405 | 69 | 283 | 7.0 | 11.0 | 0.00 | 0.00 | 0.00 | 52 | 1014.0 |
| 20260906133905 | 69 | 330 | 3.0 | 10.0 | 0.00 | 0.00 | 0.00 | 54 | 1014.0 |
| 20260906133624 | 68 | 272 | 5.0 | 10.0 | 0.00 | 0.00 | 0.00 | 54 | 1013.9 |
| 20260906132905 | 68 | 305 | 2.0 | 10.0 | 0.00 | 0.00 | 0.00 | 54 | 1013.9 |
| 20260906132406 | 68 | 261 | 6.0 | 11.0 | 0.00 | 0.00 | 0.00 | 53 | 1013.9 |
| 20260906131905 | 68 | 321 | 7.0 | 11.0 | 0.00 | 0.00 | 0.00 | 53 | 1013.9 |
| 20260906131404 | 69 | 316 | 6.0 | 14.0 | 0.00 | 0.00 | 0.00 | 52 | 1013.8 |
| 20260906130905 | 69 | 278 | 5.0 | 14.0 | 0.00 | 0.00 | 0.00 | 51 | 1013.9 |
| 20260906130409 | 68 | 276 | 7.0 | 14.0 | 0.00 | 0.00 | 0.00 | 51 | 1013.8 |
| 20260906125904 | 69 | 310 | 7.0 | 13.0 | 0.00 | 0.00 | 0.00 | 51 | 1013.9 |
| 20260906125403 | 68 | 269 | 9.0 | 13.0 | 0.00 | 0.00 | 0.00 | 50 | 1013.9 |
| 20260906125349 | 68 | 305 | 8.0 | 13.0 | 0.00 | 0.00 | 0.00 | 50 | 1013.9 |
| 20260906124403 | 68 | 303 | 6.0 | 14.0 | 0.00 | 0.00 | 0.00 | 50 | 1013.9 |
| 20260906123903 | 68 | 258 | 11.0 | 14.0 | 0.00 | 0.00 | 0.00 | 50 | 1013.8 |
| 20260906123404 | 69 | 295 | 4.0 | 12.0 | 0.00 | 0.00 | 0.00 | 53 | 1013.9 |
| 20260906122904 | 68 | 248 | 7.0 | 12.0 | 0.00 | 0.00 | 0.00 | 54 | 1013.8 |
| 20260906122404 | 68 | 288 | 4.0 | 14.0 | 0.00 | 0.00 | 0.00 | 55 | 1013.8 |
| 20260906121904 | 68 | 298 | 9.0 | 14.0 | 0.00 | 0.00 | 0.00 | 54 | 1013.8 |
| 20260906121405 | 68 | 255 | 6.0 | 12.0 | 0.00 | 0.00 | 0.00 | 57 | 1013.8 |
| 20260906120904 | 68 | 313 | 6.0 | 12.0 | 0.00 | 0.00 | 0.00 | 57 | 1013.9 |
| 20260906120404 | 68 | 312 | 5.0 | 9.0 | 0.00 | 0.00 | 0.00 | 59 | 1013.9 |
| 20260906120130 | 67 | 317 | 4.0 | 11.0 | 0.00 | 0.00 | 0.00 | 60 | 1013.8 |
| 20260906115405 | 67 | 313 | 6.0 | 11.0 | 0.00 | 0.00 | 0.00 | 59 | 1013.8 |
| 20260906115123 | 67 | 303 | 6.0 | 11.0 | 0.00 | 0.00 | 0.00 | 60 | 1013.8 |
| 20260906114629 | 67 | 276 | 6.0 | 11.0 | 0.00 | 0.00 | 0.00 | 61 | 1013.8 |
| 20260906113905 | 67 | 289 | 7.0 | 10.0 | 0.00 | 0.00 | 0.00 | 62 | 1013.7 |
| 20260906113405 | 67 | 327 | 4.0 | 10.0 | 0.00 | 0.00 | 0.00 | 62 | 1013.6 |
| 20260906112905 | 67 | 292 | 2.0 | 14.0 | 0.00 | 0.00 | 0.00 | 61 | 1013.6 |
| 20260906112405 | 67 | 298 | 9.0 | 14.0 | 0.00 | 0.00 | 0.00 | 61 | 1013.6 |
| 20260906111905 | 67 | 314 | 6.0 | 9.0 | 0.00 | 0.00 | 0.00 | 62 | 1013.6 |
| 20260906111405 | 67 | 310 | 5.0 | 9.0 | 0.00 | 0.00 | 0.00 | 61 | 1013.5 |
| 20260906111125 | 67 | 320 | 4.0 | 7.0 | 0.00 | 0.00 | 0.00 | 62 | 1013.6 |
| 20260906110625 | 66 | 298 | 3.0 | 9.0 | 0.00 | 0.00 | 0.00 | 66 | 1013.4 |
| 20260906105905 | 66 | 338 | 6.0 | 9.0 | 0.00 | 0.00 | 0.00 | 65 | 1013.4 |
| 20260906105405 | 66 | 285 | 4.0 | 11.0 | 0.00 | 0.00 | 0.00 | 64 | 1013.4 |
| 20260906105127 | 66 | 262 | 6.0 | 11.0 | 0.00 | 0.00 | 0.00 | 67 | 1013.4 |
| 20260906104405 | 66 | 314 | 4.0 | 11.0 | 0.00 | 0.00 | 0.00 | 66 | 1013.3 |
| 20260906103905 | 66 | 329 | 7.0 | 11.0 | 0.00 | 0.00 | 0.00 | 66 | 1013.4 |
| 20260906103406 | 66 | 330 | 8.0 | 12.0 | 0.00 | 0.00 | 0.00 | 63 | 1013.3 |
| 20260906102905 | 66 | 295 | 8.0 | 12.0 | 0.00 | 0.00 | 0.00 | 64 | 1013.2 |
| 20260906102405 | 66 | 312 | 2.0 | 11.0 | 0.00 | 0.00 | 0.00 | 64 | 1013.2 |
| 20260906101905 | 66 | 307 | 4.0 | 11.0 | 0.00 | 0.00 | 0.00 | 66 | 1013.2 |
| 20260906101409 | 65 | 302 | 4.0 | 10.0 | 0.00 | 0.00 | 0.00 | 65 | 1013.0 |
| 20260906101405 | 66 | 282 | 4.0 | 10.0 | 0.00 | 0.00 | 0.00 | 64 | 1013.1 |
| 20260906100405 | 65 | 319 | 5.0 | 10.0 | 0.00 | 0.00 | 0.00 | 67 | 1013.0 |
| 20260906095905 | 65 | 20 | 4.0 | 10.0 | 0.00 | 0.00 | 0.00 | 67 | 1013.0 |
| 20260906095404 | 65 | 266 | 5.0 | 9.0 | 0.00 | 0.00 | 0.00 | 71 | 1013.0 |
| 20260906094904 | 64 | 299 | 4.0 | 9.0 | 0.00 | 0.00 | 0.00 | 71 | 1012.9 |
| 20260906094405 | 64 | 279 | 6.0 | 10.0 | 0.00 | 0.00 | 0.00 | 71 | 1013.0 |
| 20260906094129 | 64 | 288 | 7.0 | 10.0 | 0.00 | 0.00 | 0.00 | 70 | 1012.9 |
| 20260906093627 | 64 | 300 | 6.0 | 10.0 | 0.00 | 0.00 | 0.00 | 70 | 1012.9 |
| 20260906092904 | 64 | 327 | 5.0 | 11.0 | 0.00 | 0.00 | 0.00 | 70 | 1012.8 |
| 20260906092405 | 63 | 300 | 4.0 | 14.0 | 0.00 | 0.00 | 0.00 | 71 | 1012.9 |
| 20260906091904 | 63 | 300 | 4.0 | 14.0 | 0.00 | 0.00 | 0.00 | 72 | 1012.8 |
| 20260906091405 | 63 | 323 | 3.0 | 10.0 | 0.00 | 0.00 | 0.00 | 71 | 1012.7 |
| 20260906091131 | 63 | 313 | 6.0 | 10.0 | 0.00 | 0.00 | 0.00 | 71 | 1012.7 |
| 20260906090405 | 63 | 327 | 6.0 | 9.0 | 0.00 | 0.00 | 0.00 | 72 | 1012.6 |
| 20260906085904 | 63 | 262 | 4.0 | 7.0 | 0.00 | 0.00 | 0.00 | 74 | 1012.5 |
| 20260906085404 | 62 | 340 | 3.0 | 10.0 | 0.00 | 0.00 | 0.00 | 74 | 1012.6 |
| 20260906084905 | 62 | 319 | 6.0 | 11.0 | 0.00 | 0.00 | 0.00 | 74 | 1012.6 |
| 20260906084405 | 62 | 321 | 8.0 | 11.0 | 0.00 | 0.00 | 0.00 | 75 | 1012.5 |
| 20260906084132 | 62 | 293 | 7.0 | 10.0 | 0.00 | 0.00 | 0.00 | 77 | 1012.4 |
| 20260906083404 | 61 | 324 | 4.0 | 10.0 | 0.00 | 0.00 | 0.00 | 77 | 1012.4 |
| 20260906082905 | 61 | 298 | 5.0 | 10.0 | 0.00 | 0.00 | 0.00 | 77 | 1012.4 |
| 20260906082405 | 61 | 298 | 5.0 | 10.0 | 0.00 | 0.00 | 0.00 | 76 | 1012.3 |
| 20260906081905 | 61 | 271 | 5.0 | 9.0 | 0.00 | 0.00 | 0.00 | 78 | 1012.3 |
| 20260906081621 | 61 | 310 | 2.0 | 11.0 | 0.00 | 0.00 | 0.00 | 79 | 1012.3 |
| 20260906080905 | 60 | 306 | 6.0 | 11.0 | 0.00 | 0.00 | 0.00 | 79 | 1012.2 |
| 20260906080601 | 60 | 338 | 7.0 | 12.0 | 0.00 | 0.00 | 0.00 | 79 | 1012.2 |
| 20260906075405 | 60 | 316 | 7.0 | 13.0 | 0.00 | 0.00 | 0.00 | 80 | 1012.1 |
| 20260906074905 | 60 | 299 | 6.0 | 12.0 | 0.00 | 0.00 | 0.00 | 81 | 1011.9 |
| 20260906074405 | 60 | 326 | 5.0 | 12.0 | 0.00 | 0.00 | 0.00 | 80 | 1011.9 |
| 20260906073905 | 59 | 320 | 5.0 | 12.0 | 0.00 | 0.00 | 0.00 | 81 | 1012.0 |
| 20260906073405 | 59 | 314 | 8.0 | 12.0 | 0.00 | 0.00 | 0.00 | 81 | 1011.9 |
| 20260906072905 | 59 | 285 | 4.0 | 11.0 | 0.00 | 0.00 | 0.00 | 83 | 1011.7 |
| 20260906072405 | 59 | 295 | 8.0 | 11.0 | 0.00 | 0.00 | 0.00 | 83 | 1011.7 |
| 20260906071905 | 59 | 317 | 5.0 | 13.0 | 0.00 | 0.00 | 0.00 | 84 | 1011.6 |
| 20260906071405 | 58 | 289 | 6.0 | 13.0 | 0.00 | 0.00 | 0.00 | 84 | 1011.7 |
| 20260906070905 | 58 | 264 | 5.0 | 11.0 | 0.00 | 0.00 | 0.00 | 85 | 1011.6 |
| 20260906070418 | 58 | 286 | 6.0 | 11.0 | 0.00 | 0.00 | 0.00 | 86 | 1011.6 |
| 20260906065905 | 58 | 262 | 6.0 | 12.0 | 0.00 | 0.00 | 0.00 | 87 | 1011.5 |
| 20260906065405 | 58 | 303 | 5.0 | 12.0 | 0.00 | 0.00 | 0.00 | 87 | 1011.4 |
| 20260906064905 | 57 | 295 | 7.0 | 11.0 | 0.00 | 0.00 | 0.00 | 88 | 1011.4 |
| 20260906064404 | 57 | 285 | 6.0 | 11.0 | 0.00 | 0.00 | 0.00 | 90 | 1011.3 |
| 20260906063905 | 57 | 290 | 5.0 | 10.0 | 0.00 | 0.00 | 0.00 | 91 | 1011.2 |
| 20260906063624 | 56 | 293 | 4.0 | 10.0 | 0.00 | 0.00 | 0.00 | 92 | 1011.2 |
| 20260906062904 | 56 | 290 | 4.0 | 7.0 | 0.00 | 0.00 | 0.00 | 93 | 1011.2 |
| 20260906062626 | 56 | 264 | 3.0 | 9.0 | 0.00 | 0.00 | 0.00 | 94 | 1011.1 |
| 20260906062128 | 55 | 279 | 5.0 | 9.0 | 0.00 | 0.00 | 0.00 | 95 | 1011.1 |
| 20260906061403 | 55 | 290 | 4.0 | 7.0 | 0.00 | 0.00 | 0.00 | 95 | 1011.0 |
| 20260906060903 | 55 | 274 | 3.0 | 5.0 | 0.00 | 0.00 | 0.00 | 95 | 1010.9 |
| 20260906060416 | 54 | 289 | 4.0 | 5.0 | 0.00 | 0.00 | 0.00 | 95 | 1010.9 |
| 20260906055904 | 54 | 245 | 3.0 | 5.0 | 0.00 | 0.00 | 0.00 | 95 | 1010.9 |
| 20260906055405 | 54 | 303 | 3.0 | 7.0 | 0.00 | 0.00 | 0.00 | 95 | 1010.9 |
| 20260906054904 | 54 | 296 | 4.0 | 7.0 | 0.00 | 0.00 | 0.00 | 95 | 1010.8 |
| 20260906054630 | 53 | 289 | 4.0 | 5.0 | 0.00 | 0.00 | 0.00 | 95 | 1010.8 |
| 20260906053904 | 53 | 298 | 2.0 | 5.0 | 0.00 | 0.00 | 0.00 | 95 | 1010.7 |
| 20260906053404 | 53 | 299 | 3.0 | 5.0 | 0.00 | 0.00 | 0.00 | 95 | 1010.6 |
| 20260906052918 | 53 | 282 | 2.0 | 7.0 | 0.00 | 0.00 | 0.00 | 94 | 1010.6 |
| 20260906052405 | 53 | 285 | 4.0 | 7.0 | 0.00 | 0.00 | 0.00 | 94 | 1010.6 |
| 20260906051905 | 53 | 296 | 2.0 | 4.0 | 0.00 | 0.00 | 0.00 | 94 | 1010.6 |
| 20260906051418 | 53 | 289 | 0.0 | 5.0 | 0.00 | 0.00 | 0.00 | 95 | 1010.5 |
| 20260906050905 | 53 | 289 | 2.0 | 5.0 | 0.00 | 0.00 | 0.00 | 95 | 1010.4 |
| 20260906050418 | 52 | 298 | 1.0 | 4.0 | 0.00 | 0.00 | 0.00 | 94 | 1010.5 |
| 20260906045905 | 52 | 303 | 2.0 | 5.0 | 0.00 | 0.00 | 0.00 | 94 | 1010.3 |
| 20260906045404 | 52 | 307 | 2.0 | 5.0 | 0.00 | 0.00 | 0.00 | 95 | 1010.1 |
| 20260906044905 | 52 | 303 | 2.0 | 4.0 | 0.00 | 0.00 | 0.00 | 94 | 1010.2 |
| 20260906044405 | 52 | 298 | 2.0 | 4.0 | 0.00 | 0.00 | 0.00 | 94 | 1010.3 |
| 20260906043905 | 51 | 293 | 2.0 | 4.0 | 0.00 | 0.00 | 0.00 | 94 | 1010.2 |
| 20260906043406 | 51 | 298 | 1.0 | 2.0 | 0.00 | 0.00 | 0.00 | 94 | 1010.1 |
| 20260906042905 | 51 | 298 | 1.0 | 2.0 | 0.00 | 0.00 | 0.00 | 94 | 1010.0 |
| 20260906042405 | 51 | 298 | 0.0 | 2.0 | 0.00 | 0.00 | 0.00 | 94 | 1010.0 |
| 20260906041905 | 51 | 298 | 0.0 | 3.0 | 0.00 | 0.00 | 0.00 | 94 | 1009.9 |
| 20260906041404 | 51 | 298 | 1.0 | 3.0 | 0.00 | 0.00 | 0.00 | 94 | 1009.9 |
| 20260906040905 | 51 | 299 | 1.0 | 3.0 | 0.00 | 0.00 | 0.00 | 94 | 1009.8 |
| 20260906040845 | 51 | 298 | 1.0 | 4.0 | 0.00 | 0.00 | 0.00 | 94 | 1009.8 |
| 20260906035905 | 51 | 298 | 0.0 | 4.0 | 0.00 | 0.00 | 0.00 | 94 | 1009.8 |
| 20260906035627 | 51 | 303 | 2.0 | 4.0 | 0.00 | 0.00 | 0.00 | 94 | 1009.8 |
| 20260906034905 | 51 | 306 | 1.0 | 2.0 | 0.00 | 0.00 | 0.00 | 94 | 1009.8 |
| 20260906034404 | 51 | 306 | 1.0 | 2.0 | 0.00 | 0.00 | 0.00 | 94 | 1009.6 |
| 20260906033905 | 51 | 306 | 1.0 | 3.0 | 0.00 | 0.00 | 0.00 | 93 | 1009.6 |
| 20260906033404 | 51 | 306 | 1.0 | 4.0 | 0.00 | 0.00 | 0.00 | 93 | 1009.6 |
| 20260906033123 | 51 | 306 | 1.0 | 4.0 | 0.00 | 0.00 | 0.00 | 93 | 1009.4 |
| 20260906032404 | 51 | 305 | 2.0 | 3.0 | 0.00 | 0.00 | 0.00 | 93 | 1009.4 |
| 20260906031905 | 51 | 306 | 1.0 | 3.0 | 0.00 | 0.00 | 0.00 | 93 | 1009.3 |
| 20260906031404 | 51 | 306 | 2.0 | 3.0 | 0.00 | 0.00 | 0.00 | 93 | 1009.3 |
| 20260906030904 | 51 | 312 | 2.0 | 2.0 | 0.00 | 0.00 | 0.00 | 93 | 1009.2 |
| 20260906030628 | 51 | 312 | 1.0 | 2.0 | 0.00 | 0.00 | 0.00 | 93 | 1009.0 |
| 20260906025905 | 51 | 316 | 0.0 | 2.0 | 0.00 | 0.00 | 0.00 | 93 | 1009.1 |
| 20260906025404 | 51 | 316 | 0.0 | 3.0 | 0.00 | 0.00 | 0.00 | 93 | 1009.0 |
| 20260906024904 | 51 | 316 | 1.0 | 3.0 | 0.00 | 0.00 | 0.00 | 93 | 1009.0 |
| 20260906024404 | 51 | 290 | 1.0 | 3.0 | 0.00 | 0.00 | 0.00 | 93 | 1008.9 |
| 20260906023904 | 51 | 316 | 1.0 | 3.0 | 0.00 | 0.00 | 0.00 | 93 | 1008.8 |
| 20260906023405 | 51 | 313 | 1.0 | 5.0 | 0.00 | 0.00 | 0.00 | 93 | 1008.8 |
| 20260906022904 | 51 | 330 | 1.0 | 5.0 | 0.00 | 0.00 | 0.00 | 93 | 1008.6 |
| 20260906022631 | 51 | 316 | 2.0 | 3.0 | 0.00 | 0.00 | 0.00 | 93 | 1008.5 |
| 20260906021906 | 51 | 310 | 1.0 | 4.0 | 0.00 | 0.00 | 0.00 | 93 | 1008.5 |
| 20260906021405 | 51 | 324 | 2.0 | 4.0 | 0.00 | 0.00 | 0.00 | 92 | 1008.5 |
| 20260906020905 | 51 | 0 | 2.0 | 3.0 | 0.00 | 0.00 | 0.00 | 92 | 1008.5 |
| 20260906020404 | 51 | 0 | 2.0 | 2.0 | 0.00 | 0.00 | 0.00 | 92 | 1008.5 |
| 20260906015904 | 51 | 0 | 1.0 | 2.0 | 0.00 | 0.00 | 0.00 | 92 | 1008.4 |
| 20260906015404 | 51 | 0 | 1.0 | 2.0 | 0.00 | 0.00 | 0.00 | 92 | 1008.4 |
| 20260906014904 | 51 | 0 | 1.0 | 2.0 | 0.00 | 0.00 | 0.00 | 92 | 1008.4 |
| 20260906014405 | 51 | 0 | 0.0 | 0.0 | 0.00 | 0.00 | 0.00 | 92 | 1008.3 |
| 20260906013905 | 51 | 0 | 0.0 | 0.0 | 0.00 | 0.00 | 0.00 | 91 | 1008.3 |
| 20260906013626 | 51 | 0 | 0.0 | 0.0 | 0.00 | 0.00 | 0.00 | 91 | 1008.2 |
| 20260906012905 | 51 | 0 | 0.0 | 0.0 | 0.00 | 0.00 | 0.00 | 91 | 1008.2 |
| 20260906012404 | 51 | 0 | 0.0 | 0.0 | 0.00 | 0.00 | 0.00 | 91 | 1008.1 |
| 20260906011905 | 51 | 0 | 0.0 | 0.0 | 0.00 | 0.00 | 0.00 | 91 | 1008.0 |
| 20260906011405 | 51 | 0 | 0.0 | 0.0 | 0.00 | 0.00 | 0.00 | 91 | 1007.9 |
| 20260906010905 | 51 | 0 | 0.0 | 0.0 | 0.00 | 0.00 | 0.00 | 91 | 1007.9 |
| 20260906010405 | 51 | 0 | 0.0 | 0.0 | 0.00 | 0.00 | 0.00 | 90 | 1007.8 |
| 20260906005905 | 51 | 0 | 0.0 | 1.0 | 0.00 | 0.00 | 0.00 | 90 | 1007.7 |
| 20260906005404 | 52 | 0 | 0.0 | 1.0 | 0.00 | 0.00 | 0.00 | 90 | 1007.7 |
| 20260906004905 | 52 | 0 | 0.0 | 2.0 | 0.00 | 0.00 | 0.00 | 90 | 1007.7 |
| 20260906004405 | 52 | 0 | 0.0 | 2.0 | 0.00 | 0.00 | 0.00 | 89 | 1007.6 |
| 20260906003904 | 52 | 0 | 0.0 | 1.0 | 0.00 | 0.00 | 0.00 | 90 | 1007.5 |
| 20260906003404 | 53 | 0 | 0.0 | 0.0 | 0.00 | 0.00 | 0.00 | 89 | 1007.4 |
| 20260906002905 | 53 | 0 | 0.0 | 0.0 | 0.00 | 0.00 | 0.00 | 89 | 1007.4 |
| 20260906002405 | 53 | 0 | 0.0 | 1.0 | 0.00 | 0.00 | 0.00 | 89 | 1007.4 |
| 20260906002133 | 53 | 0 | 0.0 | 2.0 | 0.00 | 0.00 | 0.00 | 89 | 1007.2 |
| 20260906001406 | 53 | 0 | 0.0 | 3.0 | 0.00 | 0.00 | 0.00 | 89 | 1007.2 |
| 20260906000905 | 53 | 0 | 1.0 | 3.0 | 0.00 | 0.00 | 0.00 | 89 | 1007.0 |
| 20260906000405 | 53 | 0 | 0.0 | 4.0 | 0.00 | 0.00 | 0.00 | 89 | 1006.9 |
| 20260905235904 | 53 | 0 | 2.0 | 4.0 | 0.00 | 0.00 | 0.00 | 89 | 1006.8 |
| 20260905235841 | 53 | 0 | 0.0 | 3.0 | 0.00 | 0.00 | 0.00 | 89 | 1006.7 |
| 20260905234905 | 53 | 0 | 1.0 | 4.0 | 0.00 | 0.00 | 0.00 | 89 | 1006.7 |
| 20260905234405 | 53 | 0 | 2.0 | 4.0 | 0.00 | 0.00 | 0.00 | 88 | 1006.7 |
| 20260905233905 | 54 | 0 | 2.0 | 4.0 | 0.00 | 0.00 | 0.00 | 88 | 1006.6 |
| 20260905233625 | 54 | 0 | 2.0 | 5.0 | 0.00 | 0.00 | 0.00 | 88 | 1006.5 |
| 20260905232902 | 54 | 10 | 2.0 | 5.0 | 0.00 | 0.00 | 0.00 | 88 | 1006.5 |
| 20260905232402 | 54 | 0 | 1.0 | 3.0 | 0.00 | 0.00 | 0.00 | 88 | 1006.5 |
| 20260905232122 | 54 | 0 | 1.0 | 3.0 | 0.00 | 0.00 | 0.00 | 88 | 1006.5 |
| 20260905231403 | 54 | 0 | 1.0 | 3.0 | 0.00 | 0.00 | 0.00 | 88 | 1006.3 |
| 20260905230902 | 54 | 0 | 2.0 | 5.0 | 0.00 | 0.00 | 0.00 | 88 | 1006.3 |
| 20260905230403 | 54 | 0 | 2.0 | 5.0 | 0.00 | 0.00 | 0.00 | 88 | 1006.2 |
| 20260905225902 | 54 | 24 | 1.0 | 5.0 | 0.00 | 0.00 | 0.00 | 88 | 1006.1 |
| 20260905225402 | 54 | 24 | 3.0 | 5.0 | 0.00 | 0.00 | 0.00 | 88 | 1006.0 |
| 20260905224903 | 54 | 35 | 2.0 | 7.0 | 0.00 | 0.00 | 0.00 | 88 | 1005.9 |
| 20260905224402 | 54 | 0 | 3.0 | 7.0 | 0.00 | 0.00 | 0.00 | 88 | 1006.0 |
| 20260905223902 | 54 | 0 | 3.0 | 6.0 | 0.00 | 0.00 | 0.00 | 88 | 1005.8 |
| 20260905223402 | 54 | 17 | 1.0 | 6.0 | 0.00 | 0.00 | 0.00 | 88 | 1005.7 |
| 20260905222902 | 54 | 4 | 2.0 | 3.0 | 0.00 | 0.00 | 0.00 | 88 | 1005.7 |
| 20260905222403 | 54 | 353 | 1.0 | 4.0 | 0.00 | 0.00 | 0.00 | 88 | 1005.7 |
| 20260905221904 | 54 | 0 | 1.0 | 4.0 | 0.00 | 0.00 | 0.00 | 87 | 1005.5 |
| 20260905221403 | 54 | 0 | 1.0 | 4.0 | 0.00 | 0.00 | 0.00 | 87 | 1005.5 |
| 20260905220903 | 54 | 8 | 3.0 | 4.0 | 0.00 | 0.00 | 0.00 | 87 | 1005.4 |
| 20260905220627 | 54 | 0 | 3.0 | 4.0 | 0.00 | 0.00 | 0.00 | 87 | 1005.3 |
| 20260905215904 | 55 | 8 | 2.0 | 5.0 | 0.00 | 0.00 | 0.00 | 87 | 1005.2 |
| 20260905215403 | 55 | 7 | 3.0 | 5.0 | 0.00 | 0.00 | 0.00 | 86 | 1005.2 |
| 20260905214904 | 55 | 0 | 2.0 | 5.0 | 0.00 | 0.00 | 0.00 | 86 | 1005.1 |
| 20260905214404 | 55 | 348 | 3.0 | 5.0 | 0.00 | 0.00 | 0.00 | 86 | 1005.1 |
| 20260905213903 | 55 | 23 | 3.0 | 5.0 | 0.00 | 0.00 | 0.00 | 86 | 1005.1 |
| 20260905213404 | 55 | 11 | 2.0 | 6.0 | 0.00 | 0.00 | 0.00 | 85 | 1005.0 |
| 20260905212904 | 55 | 4 | 2.0 | 6.0 | 0.00 | 0.00 | 0.00 | 85 | 1004.9 |
| 20260905212405 | 55 | 45 | 4.0 | 6.0 | 0.00 | 0.00 | 0.00 | 85 | 1004.9 |
| 20260905211903 | 55 | 25 | 2.0 | 6.0 | 0.00 | 0.00 | 0.00 | 85 | 1004.8 |
| 20260905211403 | 55 | 25 | 2.0 | 6.0 | 0.00 | 0.00 | 0.00 | 84 | 1004.8 |
| 20260905210903 | 55 | 28 | 3.0 | 7.0 | 0.00 | 0.00 | 0.00 | 84 | 1004.7 |
| 20260905210404 | 55 | 3 | 4.0 | 7.0 | 0.00 | 0.00 | 0.00 | 84 | 1004.7 |
| 20260905205905 | 56 | 8 | 3.0 | 6.0 | 0.00 | 0.00 | 0.00 | 84 | 1004.6 |
| 20260905205405 | 56 | 24 | 4.0 | 6.0 | 0.00 | 0.00 | 0.00 | 84 | 1004.5 |
| 20260905204904 | 56 | 34 | 4.0 | 6.0 | 0.00 | 0.00 | 0.00 | 83 | 1004.4 |
| 20260905204405 | 56 | 7 | 3.0 | 7.0 | 0.00 | 0.00 | 0.00 | 83 | 1004.3 |
| 20260905204348 | 56 | 0 | 4.0 | 11.0 | 0.00 | 0.00 | 0.00 | 83 | 1004.3 |
| 20260905203405 | 56 | 0 | 3.0 | 11.0 | 0.00 | 0.00 | 0.00 | 83 | 1004.2 |
| 20260905202906 | 56 | 23 | 3.0 | 9.0 | 0.00 | 0.00 | 0.00 | 83 | 1004.1 |
| 20260905202405 | 56 | 27 | 4.0 | 9.0 | 0.00 | 0.00 | 0.00 | 83 | 1004.0 |
| 20260905201904 | 56 | 32 | 2.0 | 5.0 | 0.00 | 0.00 | 0.00 | 83 | 1004.0 |
| 20260905201629 | 56 | 0 | 1.0 | 6.0 | 0.00 | 0.00 | 0.00 | 83 | 1004.0 |
| 20260905200905 | 56 | 358 | 4.0 | 6.0 | 0.00 | 0.00 | 0.00 | 83 | 1004.0 |
| 20260905200404 | 55 | 355 | 2.0 | 4.0 | 0.00 | 0.00 | 0.00 | 84 | 1003.9 |
| 20260905195904 | 55 | 18 | 1.0 | 5.0 | 0.00 | 0.00 | 0.00 | 84 | 1003.9 |
| 20260905195405 | 55 | 348 | 2.0 | 5.0 | 0.00 | 0.00 | 0.00 | 84 | 1003.9 |
| 20260905195129 | 55 | 338 | 1.0 | 3.0 | 0.00 | 0.00 | 0.00 | 84 | 1003.7 |
| 20260905194405 | 56 | 343 | 2.0 | 4.0 | 0.00 | 0.00 | 0.00 | 84 | 1003.6 |
| 20260905193904 | 56 | 0 | 2.0 | 4.0 | 0.00 | 0.00 | 0.00 | 84 | 1003.6 |
| 20260905193405 | 56 | 338 | 2.0 | 4.0 | 0.00 | 0.00 | 0.00 | 84 | 1003.5 |
| 20260905193350 | 56 | 330 | 3.0 | 5.0 | 0.00 | 0.00 | 0.00 | 83 | 1003.5 |
| 20260905192405 | 56 | 309 | 2.0 | 5.0 | 0.00 | 0.00 | 0.00 | 83 | 1003.5 |
| 20260905191905 | 56 | 326 | 2.0 | 4.0 | 0.00 | 0.00 | 0.00 | 83 | 1003.4 |
| 20260905191404 | 56 | 330 | 3.0 | 4.0 | 0.00 | 0.00 | 0.00 | 83 | 1003.3 |
| 20260905191127 | 56 | 299 | 2.0 | 5.0 | 0.00 | 0.00 | 0.00 | 83 | 1003.3 |